| time (UTC) | temp F | wind direction | speed knots | gust knots | rain 1hr in | rain 24hr in | rain mn in | humidity % | barometer mb |
| 20260504050541 | 48 | 192 | 2.6 | 4.3 | 0.00 | 0.00 | 0.00 | 51 | 1014.0 |
| 20260504045541 | 48 | 180 | 1.7 | 4.3 | 0.00 | 0.00 | 0.00 | 51 | 1014.0 |
| 20260504045041 | 48 | 154 | 2.6 | 4.3 | 0.00 | 0.00 | 0.00 | 51 | 1014.1 |
| 20260504044553 | 48 | 186 | 1.7 | 4.3 | 0.00 | 0.00 | 0.00 | 51 | 1014.0 |
| 20260504044041 | 48 | 184 | 0.9 | 3.5 | 0.00 | 0.00 | 0.00 | 52 | 1014.0 |
| 20260504043542 | 48 | 194 | 0.9 | 3.5 | 0.00 | 0.00 | 0.00 | 52 | 1014.0 |
| 20260504043110 | 48 | 205 | 1.7 | 3.5 | 0.00 | 0.00 | 0.00 | 52 | 1013.9 |
| 20260504042541 | 48 | 187 | 1.7 | 3.5 | 0.00 | 0.00 | 0.00 | 52 | 1013.9 |
| 20260504042040 | 48 | 194 | 1.7 | 3.5 | 0.00 | 0.00 | 0.00 | 51 | 1014.0 |
| 20260504041547 | 48 | 189 | 1.7 | 3.5 | 0.00 | 0.00 | 0.00 | 51 | 1014.0 |
| 20260504041040 | 48 | 196 | 0.9 | 3.5 | 0.00 | 0.00 | 0.00 | 51 | 1013.9 |
| 20260504040541 | 48 | 198 | 0.9 | 3.5 | 0.00 | 0.00 | 0.00 | 52 | 1013.8 |
| 20260504040055 | 48 | 208 | 1.7 | 3.5 | 0.00 | 0.00 | 0.00 | 52 | 1013.9 |
| 20260504035542 | 48 | 205 | 1.7 | 5.2 | 0.00 | 0.00 | 0.00 | 52 | 1013.9 |
| 20260504035042 | 48 | 188 | 2.6 | 5.2 | 0.00 | 0.00 | 0.00 | 51 | 1013.9 |
| 20260504034551 | 48 | 186 | 3.5 | 5.2 | 0.00 | 0.00 | 0.00 | 51 | 1013.8 |
| 20260504034041 | 48 | 184 | 2.6 | 4.3 | 0.00 | 0.00 | 0.00 | 51 | 1013.8 |
| 20260504033541 | 48 | 194 | 2.6 | 4.3 | 0.00 | 0.00 | 0.00 | 51 | 1013.8 |
| 20260504033101 | 49 | 184 | 1.7 | 4.3 | 0.00 | 0.00 | 0.00 | 51 | 1013.8 |
| 20260504032541 | 49 | 196 | 2.6 | 4.3 | 0.00 | 0.00 | 0.00 | 51 | 1013.8 |
| 20260504032041 | 49 | 185 | 1.7 | 4.3 | 0.00 | 0.00 | 0.00 | 50 | 1013.8 |
| 20260504031556 | 49 | 191 | 1.7 | 4.3 | 0.00 | 0.00 | 0.00 | 51 | 1013.7 |
| 20260504031041 | 48 | 202 | 0.9 | 2.6 | 0.00 | 0.00 | 0.00 | 51 | 1013.6 |
| 20260504030541 | 48 | 192 | 0.9 | 2.6 | 0.00 | 0.00 | 0.00 | 52 | 1013.7 |
| 20260504025541 | 49 | 196 | 0.0 | 1.7 | 0.00 | 0.00 | 0.00 | 51 | 1013.6 |
| 20260504025042 | 49 | 198 | 0.0 | 2.6 | 0.00 | 0.00 | 0.00 | 52 | 1013.6 |
| 20260504024547 | 49 | 193 | 0.9 | 2.6 | 0.00 | 0.00 | 0.00 | 50 | 1013.6 |
| 20260504024041 | 49 | 196 | 0.0 | 3.5 | 0.00 | 0.00 | 0.00 | 50 | 1013.5 |
| 20260504023541 | 49 | 196 | 0.9 | 3.5 | 0.00 | 0.00 | 0.00 | 50 | 1013.6 |
| 20260504023044 | 49 | 177 | 0.9 | 2.6 | 0.00 | 0.00 | 0.00 | 50 | 1013.6 |
| 20260504022543 | 49 | 173 | 0.0 | 2.6 | 0.00 | 0.00 | 0.00 | 51 | 1013.5 |
| 20260504022042 | 50 | 182 | 0.0 | 2.6 | 0.00 | 0.00 | 0.00 | 50 | 1013.5 |
| 20260504021552 | 50 | 0 | 0.9 | 2.6 | 0.00 | 0.00 | 0.00 | 49 | 1013.4 |
| 20260504021043 | 50 | 0 | 0.9 | 2.6 | 0.00 | 0.00 | 0.00 | 49 | 1013.5 |
| 20260504020542 | 49 | 186 | 0.9 | 2.6 | 0.00 | 0.00 | 0.00 | 51 | 1013.5 |
| 20260504020105 | 49 | 158 | 0.9 | 2.6 | 0.00 | 0.00 | 0.00 | 51 | 1013.5 |
| 20260504015541 | 49 | 150 | 0.9 | 3.5 | 0.00 | 0.00 | 0.00 | 52 | 1013.5 |
| 20260504015041 | 50 | 148 | 0.9 | 3.5 | 0.00 | 0.00 | 0.00 | 52 | 1013.4 |
| 20260504014605 | 50 | 183 | 0.0 | 1.7 | 0.00 | 0.00 | 0.00 | 50 | 1013.4 |
| 20260504014040 | 51 | 0 | 0.0 | 0.9 | 0.00 | 0.00 | 0.00 | 48 | 1013.4 |
| 20260504013545 | 51 | 0 | 0.0 | 0.9 | 0.00 | 0.00 | 0.00 | 48 | 1013.3 |
| 20260504013055 | 51 | 0 | 0.0 | 1.7 | 0.00 | 0.00 | 0.00 | 47 | 1013.4 |
| 20260504012541 | 51 | 0 | 0.0 | 2.6 | 0.00 | 0.00 | 0.00 | 47 | 1013.3 |
| 20260504012041 | 51 | 0 | 0.0 | 2.6 | 0.00 | 0.00 | 0.00 | 47 | 1013.3 |
| 20260504011552 | 51 | 189 | 0.9 | 2.6 | 0.00 | 0.00 | 0.00 | 47 | 1013.2 |
| 20260504011044 | 51 | 198 | 0.9 | 1.7 | 0.00 | 0.00 | 0.00 | 48 | 1013.2 |
| 20260504010541 | 51 | 198 | 0.9 | 1.7 | 0.00 | 0.00 | 0.00 | 48 | 1013.2 |
| 20260504010058 | 52 | 201 | 0.0 | 0.9 | 0.00 | 0.00 | 0.00 | 47 | 1013.3 |
| 20260504005541 | 52 | 0 | 0.0 | 0.9 | 0.00 | 0.00 | 0.00 | 47 | 1013.3 |
| 20260504005041 | 52 | 0 | 0.0 | 0.9 | 0.00 | 0.00 | 0.00 | 46 | 1013.1 |
| 20260504004548 | 52 | 0 | 0.0 | 1.7 | 0.00 | 0.00 | 0.00 | 47 | 1013.1 |
| 20260504004041 | 53 | 0 | 0.0 | 2.6 | 0.00 | 0.00 | 0.00 | 46 | 1013.0 |
| 20260504003541 | 53 | 0 | 0.9 | 2.6 | 0.00 | 0.00 | 0.00 | 45 | 1013.1 |
| 20260504003045 | 53 | 193 | 0.0 | 2.6 | 0.00 | 0.00 | 0.00 | 44 | 1013.0 |
| 20260504002540 | 53 | 0 | 0.0 | 0.0 | 0.00 | 0.00 | 0.00 | 44 | 1012.9 |
| 20260504002041 | 54 | 0 | 0.0 | 1.7 | 0.00 | 0.00 | 0.00 | 43 | 1012.9 |
| 20260504001553 | 54 | 0 | 0.0 | 1.7 | 0.00 | 0.00 | 0.00 | 43 | 1012.8 |
| 20260504001043 | 54 | 0 | 0.0 | 1.7 | 0.00 | 0.00 | 0.00 | 42 | 1012.8 |
| 20260504000541 | 55 | 290 | 0.0 | 1.7 | 0.00 | 0.00 | 0.00 | 42 | 1012.7 |
| 20260504000046 | 55 | 0 | 0.0 | 0.9 | 0.00 | 0.00 | 0.00 | 41 | 1012.7 |
| 20260503235541 | 55 | 0 | 0.0 | 1.7 | 0.00 | 0.00 | 0.00 | 41 | 1012.6 |
| 20260503235042 | 56 | 0 | 0.0 | 1.7 | 0.00 | 0.00 | 0.00 | 40 | 1012.6 |
| 20260503234550 | 56 | 290 | 0.9 | 4.3 | 0.00 | 0.00 | 0.00 | 40 | 1012.5 |
| 20260503234042 | 56 | 0 | 0.9 | 4.3 | 0.00 | 0.00 | 0.00 | 40 | 1012.4 |
| 20260503233542 | 56 | 286 | 1.7 | 7.8 | 0.00 | 0.00 | 0.00 | 39 | 1012.4 |
| 20260503233047 | 57 | 288 | 1.7 | 7.8 | 0.00 | 0.00 | 0.00 | 39 | 1012.4 |
| 20260503232543 | 57 | 275 | 2.6 | 7.0 | 0.00 | 0.00 | 0.00 | 38 | 1012.3 |
| 20260503232041 | 57 | 295 | 0.9 | 2.6 | 0.00 | 0.00 | 0.00 | 38 | 1012.2 |
| 20260503231552 | 57 | 283 | 0.9 | 2.6 | 0.00 | 0.00 | 0.00 | 38 | 1012.2 |
| 20260503231042 | 57 | 287 | 0.9 | 2.6 | 0.00 | 0.00 | 0.00 | 37 | 1012.2 |
| 20260503230541 | 57 | 275 | 0.9 | 7.8 | 0.00 | 0.00 | 0.00 | 37 | 1012.2 |
| 20260503230109 | 57 | 239 | 0.9 | 7.8 | 0.00 | 0.00 | 0.00 | 38 | 1012.3 |
| 20260503225542 | 57 | 254 | 2.6 | 7.0 | 0.00 | 0.00 | 0.00 | 39 | 1012.3 |
| 20260503225041 | 58 | 281 | 1.7 | 9.6 | 0.00 | 0.00 | 0.00 | 38 | 1012.3 |
| 20260503224550 | 58 | 274 | 1.7 | 9.6 | 0.00 | 0.00 | 0.00 | 38 | 1012.4 |
| 20260503224043 | 58 | 288 | 3.5 | 9.6 | 0.00 | 0.00 | 0.00 | 37 | 1012.5 |
| 20260503223541 | 58 | 278 | 2.6 | 9.6 | 0.00 | 0.00 | 0.00 | 38 | 1012.4 |
| 20260503223102 | 58 | 312 | 5.2 | 10.4 | 0.00 | 0.00 | 0.00 | 37 | 1012.4 |
| 20260503222543 | 58 | 308 | 5.2 | 13.0 | 0.00 | 0.00 | 0.00 | 35 | 1012.4 |
| 20260503222040 | 58 | 316 | 4.3 | 13.0 | 0.00 | 0.00 | 0.00 | 37 | 1012.4 |
| 20260503221552 | 58 | 275 | 4.3 | 8.7 | 0.00 | 0.00 | 0.00 | 35 | 1012.3 |
| 20260503221040 | 58 | 337 | 2.6 | 11.3 | 0.00 | 0.00 | 0.00 | 37 | 1012.4 |
| 20260503220541 | 58 | 277 | 3.5 | 14.8 | 0.00 | 0.00 | 0.00 | 37 | 1012.4 |
| 20260503220055 | 58 | 304 | 2.6 | 14.8 | 0.00 | 0.00 | 0.00 | 36 | 1012.6 |
| 20260503215540 | 58 | 304 | 5.2 | 17.4 | 0.00 | 0.00 | 0.00 | 35 | 1012.4 |
| 20260503215041 | 58 | 269 | 6.1 | 17.4 | 0.00 | 0.00 | 0.00 | 35 | 1012.4 |
| 20260503214556 | 58 | 316 | 4.3 | 11.3 | 0.00 | 0.00 | 0.00 | 37 | 1012.6 |
| 20260503214041 | 58 | 213 | 1.7 | 7.8 | 0.00 | 0.00 | 0.00 | 37 | 1012.4 |
| 20260503213542 | 58 | 280 | 1.7 | 12.2 | 0.00 | 0.00 | 0.00 | 37 | 1012.4 |
| 20260503213051 | 58 | 275 | 1.7 | 12.2 | 0.00 | 0.00 | 0.00 | 39 | 1012.4 |
| 20260503212541 | 58 | 329 | 3.5 | 10.4 | 0.00 | 0.00 | 0.00 | 36 | 1012.5 |
| 20260503212040 | 58 | 300 | 5.2 | 10.4 | 0.00 | 0.00 | 0.00 | 37 | 1012.5 |
| 20260503211552 | 58 | 279 | 6.1 | 10.4 | 0.00 | 0.00 | 0.00 | 38 | 1012.4 |
| 20260503211040 | 58 | 321 | 2.6 | 13.0 | 0.00 | 0.00 | 0.00 | 36 | 1012.3 |
| 20260503210541 | 57 | 336 | 5.2 | 13.0 | 0.00 | 0.00 | 0.00 | 36 | 1012.3 |
| 20260503210051 | 57 | 305 | 4.3 | 11.3 | 0.00 | 0.00 | 0.00 | 35 | 1012.3 |
| 20260503205541 | 57 | 283 | 1.7 | 14.8 | 0.00 | 0.00 | 0.00 | 37 | 1012.2 |
| 20260503205041 | 57 | 284 | 6.1 | 14.8 | 0.00 | 0.00 | 0.00 | 34 | 1012.4 |
| 20260503204551 | 58 | 286 | 7.8 | 13.9 | 0.00 | 0.00 | 0.00 | 35 | 1012.3 |
| 20260503204041 | 58 | 304 | 6.1 | 13.9 | 0.00 | 0.00 | 0.00 | 34 | 1012.3 |
| 20260503203540 | 58 | 298 | 5.2 | 11.3 | 0.00 | 0.00 | 0.00 | 35 | 1012.4 |
| 20260503203049 | 57 | 323 | 5.2 | 11.3 | 0.00 | 0.00 | 0.00 | 34 | 1012.4 |
| 20260503202541 | 57 | 290 | 2.6 | 9.6 | 0.00 | 0.00 | 0.00 | 37 | 1012.4 |
| 20260503202041 | 57 | 284 | 1.7 | 13.0 | 0.00 | 0.00 | 0.00 | 35 | 1012.4 |
| 20260503201554 | 58 | 302 | 7.0 | 13.0 | 0.00 | 0.00 | 0.00 | 34 | 1012.4 |
| 20260503201041 | 58 | 311 | 2.6 | 13.0 | 0.00 | 0.00 | 0.00 | 34 | 1012.4 |
| 20260503200540 | 58 | 256 | 1.7 | 13.0 | 0.00 | 0.00 | 0.00 | 36 | 1012.4 |
| 20260503200053 | 57 | 269 | 6.1 | 15.6 | 0.00 | 0.00 | 0.00 | 34 | 1012.7 |
| 20260503195540 | 57 | 320 | 7.8 | 15.6 | 0.00 | 0.00 | 0.00 | 34 | 1012.5 |
| 20260503195041 | 57 | 309 | 8.7 | 13.9 | 0.00 | 0.00 | 0.00 | 34 | 1012.8 |
| 20260503194616 | 57 | 313 | 6.1 | 13.9 | 0.00 | 0.00 | 0.00 | 34 | 1012.8 |
| 20260503194044 | 57 | 312 | 9.6 | 13.9 | 0.00 | 0.00 | 0.00 | 34 | 1012.7 |
| 20260503193542 | 57 | 289 | 5.2 | 15.6 | 0.00 | 0.00 | 0.00 | 34 | 1012.9 |
| 20260503193053 | 56 | 310 | 7.0 | 15.6 | 0.00 | 0.00 | 0.00 | 34 | 1013.0 |
| 20260503192541 | 57 | 250 | 6.1 | 13.0 | 0.00 | 0.00 | 0.00 | 34 | 1012.9 |
| 20260503192041 | 57 | 317 | 7.0 | 12.2 | 0.00 | 0.00 | 0.00 | 36 | 1013.1 |
| 20260503191554 | 56 | 270 | 0.9 | 12.2 | 0.00 | 0.00 | 0.00 | 37 | 1013.0 |
| 20260503191041 | 57 | 268 | 7.0 | 13.9 | 0.00 | 0.00 | 0.00 | 35 | 1013.2 |
| 20260503190541 | 56 | 279 | 6.1 | 13.9 | 0.00 | 0.00 | 0.00 | 35 | 1013.2 |
| 20260503190048 | 56 | 302 | 4.3 | 11.3 | 0.00 | 0.00 | 0.00 | 37 | 1013.4 |
| 20260503185541 | 55 | 267 | 2.6 | 12.2 | 0.00 | 0.00 | 0.00 | 37 | 1013.3 |
| 20260503185041 | 56 | 315 | 5.2 | 12.2 | 0.00 | 0.00 | 0.00 | 36 | 1013.4 |
| 20260503184547 | 55 | 316 | 6.1 | 12.2 | 0.00 | 0.00 | 0.00 | 37 | 1013.6 |
| 20260503184040 | 55 | 287 | 6.1 | 12.2 | 0.00 | 0.00 | 0.00 | 37 | 1013.6 |
| 20260503183541 | 55 | 293 | 5.2 | 13.0 | 0.00 | 0.00 | 0.00 | 35 | 1013.8 |
| 20260503183056 | 55 | 311 | 4.3 | 13.0 | 0.00 | 0.00 | 0.00 | 37 | 1013.8 |
| 20260503182540 | 55 | 282 | 4.3 | 13.9 | 0.00 | 0.00 | 0.00 | 39 | 1013.8 |
| 20260503182042 | 55 | 326 | 7.0 | 13.9 | 0.00 | 0.00 | 0.00 | 38 | 1013.9 |
| 20260503181559 | 54 | 311 | 6.1 | 12.2 | 0.00 | 0.00 | 0.00 | 40 | 1013.7 |
| 20260503181044 | 54 | 269 | 6.1 | 15.6 | 0.00 | 0.00 | 0.00 | 41 | 1013.8 |
| 20260503180541 | 53 | 307 | 6.1 | 15.6 | 0.00 | 0.00 | 0.00 | 39 | 1013.9 |
| 20260503180055 | 54 | 248 | 1.7 | 7.8 | 0.00 | 0.00 | 0.00 | 44 | 1013.8 |
| 20260503175540 | 54 | 265 | 3.5 | 17.4 | 0.00 | 0.00 | 0.00 | 41 | 1013.9 |
| 20260503175040 | 53 | 331 | 5.2 | 17.4 | 0.00 | 0.00 | 0.00 | 43 | 1014.0 |
| 20260503174556 | 53 | 275 | 2.6 | 11.3 | 0.00 | 0.00 | 0.00 | 44 | 1013.9 |
| 20260503174040 | 53 | 283 | 4.3 | 12.2 | 0.00 | 0.00 | 0.00 | 40 | 1013.9 |
| 20260503173540 | 52 | 261 | 4.3 | 12.2 | 0.00 | 0.00 | 0.00 | 41 | 1014.0 |
| 20260503173053 | 53 | 277 | 3.5 | 13.9 | 0.00 | 0.00 | 0.00 | 41 | 1014.0 |
| 20260503172541 | 52 | 321 | 8.7 | 14.8 | 0.00 | 0.00 | 0.00 | 39 | 1014.1 |
| 20260503172041 | 53 | 326 | 4.3 | 14.8 | 0.00 | 0.00 | 0.00 | 40 | 1014.1 |
| 20260503171552 | 52 | 287 | 7.8 | 14.8 | 0.00 | 0.00 | 0.00 | 40 | 1014.1 |
| 20260503171041 | 51 | 269 | 3.5 | 13.9 | 0.00 | 0.00 | 0.00 | 40 | 1014.2 |
| 20260503170541 | 51 | 257 | 7.8 | 13.9 | 0.00 | 0.00 | 0.00 | 40 | 1014.2 |
| 20260503150543 | 47 | 291 | 6.1 | 13.0 | 0.00 | 0.00 | 0.00 | 45 | 1015.0 |
| 20260503131041 | 43 | 5 | 8.7 | 13.9 | 0.00 | 0.00 | 0.00 | 52 | 1015.1 |
| 20260503130541 | 43 | 309 | 7.8 | 15.6 | 0.00 | 0.00 | 0.00 | 55 | 1015.1 |
| 20260503110540 | 37 | 315 | 0.9 | 4.3 | 0.00 | 0.00 | 0.00 | 72 | 1014.4 |
| 20260503081550 | 38 | 285 | 1.7 | 6.1 | 0.00 | 0.00 | 0.00 | 70 | 1012.5 |
| 20260503081046 | 38 | 335 | 1.7 | 6.1 | 0.00 | 0.00 | 0.00 | 70 | 1012.6 |
| 20260503080544 | 38 | 292 | 2.6 | 7.0 | 0.00 | 0.00 | 0.00 | 70 | 1012.5 |
| 20260503072542 | 39 | 289 | 3.5 | 8.7 | 0.00 | 0.00 | 0.00 | 68 | 1012.2 |
| 20260503072044 | 39 | 313 | 3.5 | 8.7 | 0.00 | 0.00 | 0.00 | 69 | 1012.1 |
| 20260503071552 | 39 | 296 | 1.7 | 5.2 | 0.00 | 0.00 | 0.00 | 71 | 1012.1 |
| 20260503071043 | 39 | 294 | 0.9 | 2.6 | 0.00 | 0.00 | 0.00 | 71 | 1012.1 |